Granada, Spain

4:44 AM CEST on August 26, 2016 (GMT +0200)
Granada

Weather History for LEGR - August, 2013

Change the Weather History Date:

Thursday, August 22, 2013

  Actual Average Record
Temperature  
Mean Temperature 83 °F -  
Max Temperature 101 °F 84 °F 101 °F (2013)
Min Temperature 65 °F 55 °F 50 °F (1996)
Cooling Degree Days 18    
Growing Degree Days 33 (Base 50)    
Moisture  
Dew Point 54 °F    
Average Humidity 39    
Maximum Humidity 78    
Minimum Humidity 13    
Precipitation  
Precipitation 0.00 in - - ()
Sea Level Pressure  
Sea Level Pressure 30.02 in    
Wind  
Wind Speed 2 mph ()    
Max Wind Speed 13 mph    
Max Gust Speed -    
Visibility 7.7 miles    
Events      
Averages and records for this station are not official NWS values.
T = Trace of Precipitation, MM = Missing Value Source: Averaged Metar Reports

Daily Weather History Graph

Daily Weather History Graph

Search for Another Location

Airport or City:

Trip Planner

Search our weather history database for the weather conditions in past years. The results will help you decide how hot, cold, wet, or windy it might be!

Date:

Astronomy

Aug. 22, 2013 Rise Set
Actual Time 7:37 AM CEST 8:57 PM CEST
Civil Twilight 7:10 AM CEST 9:25 PM CEST
Nautical Twilight 6:37 AM CEST 9:57 PM CEST
Astronomical Twilight 6:03 AM CEST 10:31 PM CEST
Moon 9:37 PM CEST (8/22) 9:06 AM CEST (8/22)
Length of Visible Light 14h 14m
Length of Day
13h 20m
Full, 98% of the Moon is Illuminated
Aug 22
Full
Aug 28
Last Quarter
Sep 5
New
Sep 12
First Quarter
Sep 19
Full

Hourly Weather History & Observations

Time (CEST) Temp. Heat Index Dew Point Humidity Pressure Visibility Wind Dir Wind Speed Gust Speed Precip Events Conditions
2:00 AM 73 °F - 59 °F 52% 30.02 in 14 mi South 2.3 mph - -  
6:00 AM 68.0 °F - 57.2 °F 68% 30.06 in - Calm Calm - N/A   Clear
6:30 AM 66.2 °F - 57.2 °F 73% 30.06 in - Calm Calm - N/A   Clear
7:00 AM 66.2 °F - 59.0 °F 78% 30.06 in - Calm Calm - N/A   Clear
7:30 AM 66.2 °F - 59.0 °F 78% 30.06 in - Variable 1.2 mph - N/A   Clear
8:00 AM 66 °F - 56 °F 62% 30.02 in 16 mi WSW 1.2 mph - -   Clear
8:00 AM 66.2 °F - 57.2 °F 73% 30.06 in - Calm Calm - N/A   Clear
8:30 AM 68.0 °F - 59.0 °F 73% 30.06 in - Calm Calm - N/A   Clear
9:00 AM 69.8 °F - 60.8 °F 73% 30.06 in - Calm Calm - N/A   Clear
9:30 AM 73.4 °F - 60.8 °F 65% 30.06 in - Calm Calm - N/A   Clear
10:00 AM 73.4 °F - 60.8 °F 65% 30.09 in - Calm Calm - N/A   Clear
10:30 AM 78.8 °F - 62.6 °F 57% 30.09 in - Calm Calm - N/A   Clear
11:00 AM 82.4 °F 82.9 °F 60.8 °F 48% 30.06 in - Calm Calm - N/A   Clear
11:30 AM 84.2 °F 84.4 °F 60.8 °F 45% 30.06 in - Calm Calm - N/A   Clear
12:00 PM 86.0 °F 85.4 °F 59.0 °F 40% 30.06 in - Calm Calm - N/A   Clear
12:30 PM 89.6 °F 88.9 °F 59.0 °F 36% 30.06 in 6.2 mi Calm Calm - N/A   Partly Cloudy
1:00 PM 89.6 °F 88.9 °F 59.0 °F 36% 30.06 in 6.2 mi Variable 2.3 mph - N/A   Partly Cloudy
1:30 PM 93.2 °F 94.1 °F 62.6 °F 36% 30.04 in 6.2 mi Variable 1.2 mph - N/A   Partly Cloudy
2:00 PM 96.8 °F - 51.8 °F 22% 30.04 in 6.2 mi Variable 2.3 mph - N/A   Partly Cloudy
2:30 PM 95.0 °F - 50.0 °F 22% 30.04 in 6.2 mi WNW 3.5 mph - N/A   Partly Cloudy
3:00 PM 98.6 °F - 51.8 °F 21% 30.01 in 6.2 mi WNW 5.8 mph - N/A   Partly Cloudy
3:30 PM 98.6 °F - 51.8 °F 21% 30.01 in 6.2 mi Variable 3.5 mph - N/A   Partly Cloudy
4:00 PM 98.6 °F - 50.0 °F 19% 30.01 in 6.2 mi West 6.9 mph - N/A   Partly Cloudy
4:30 PM 102.2 °F - 50.0 °F 17% 29.98 in 6.2 mi West 9.2 mph - N/A   Partly Cloudy
5:00 PM 100.4 °F - 46.4 °F 16% 29.98 in 6.2 mi West 12.7 mph - N/A   Partly Cloudy
5:30 PM 100.4 °F - 46.4 °F 16% 29.98 in 6.2 mi West 11.5 mph - N/A   Partly Cloudy
6:00 PM 100.4 °F - 46.4 °F 16% 29.95 in 6.2 mi West 11.5 mph - N/A   Partly Cloudy
6:30 PM 100.4 °F - 46.4 °F 16% 29.95 in 6.2 mi West 12.7 mph - N/A   Partly Cloudy
7:00 PM 98.6 °F - 48.2 °F 18% 29.95 in 6.2 mi West 10.4 mph - N/A   Partly Cloudy
7:30 PM 95.0 °F - 48.2 °F 20% 29.95 in 6.2 mi West 10.4 mph - N/A   Partly Cloudy
8:00 PM 93 °F - 48 °F 13% 29.81 in 19 mi West 10.4 mph - -   Scattered Clouds
8:00 PM 93.2 °F - 48.2 °F 21% 29.95 in 6.2 mi West 9.2 mph - N/A   Partly Cloudy
8:30 PM 91.4 °F - 51.8 °F 26% 29.95 in 6.2 mi WNW 4.6 mph - N/A   Partly Cloudy
9:00 PM 89.6 °F - 51.8 °F 27% 29.98 in - Variable 1.2 mph - N/A   Clear
9:30 PM 86.0 °F - 51.8 °F 31% 29.98 in - Calm Calm - N/A   Clear
10:00 PM 84.2 °F - 50.0 °F 30% 30.01 in - Variable 1.2 mph - N/A   Clear
10:30 PM 80.6 °F - 50.0 °F 34% 30.01 in - South 3.5 mph - N/A   Clear
11:00 PM 82.4 °F - 50.0 °F 32% 30.01 in - Calm Calm - N/A   Clear